Regional Weather Roundup
Issued by NWS

Home | Current Version | Previous Version | Graphics & Text | Print | Product List | Glossary On
Versions: 1 2 3 4 5 6 7 8 9 10 11 12 13 14 15 16 17 18 19 20 21 22 23 24 25 26 27 28 29 30 31 32 33 34 35 36 37 38 39 40 41 42 43 44 45 46 47 48 49 50
000
ASUS43 KLOT 271101
RWRIL

ILLINOIS REGIONAL WEATHER ROUNDUP
NATIONAL WEATHER SERVICE CHICAGO/ROMEOVILLE IL
600 AM CDT WED MAY 27 2015

NOTE: "FAIR" INDICATES FEW OR NO CLOUDS BELOW 12,000 FEET WITH NO
SIGNIFICANT WEATHER AND/OR OBSTRUCTIONS TO VISIBILITY.

* THESE STATIONS ARE NOT UNDER NWS QUALITY CONTROL. THEY ALSO MAY NOT
  REPORT WEATHER SUCH AS PRECIPITATION OR FOG.

ILZ001-002-007-009-015-016-024-271200-
NORTHWEST ILLINOIS

CITY           SKY/WX    TMP DP  RH WIND       PRES   REMARKS
MOLINE         CLEAR     61  58  90 SW8       29.93R
STERLING*      CLOUDY    63  59  88 W9        29.93R
$$

ILZ003-004-008-010-011-017-018-271200-
NORTH CENTRAL ILLINOIS

CITY           SKY/WX    TMP DP  RH WIND       PRES   REMARKS
ROCKFORD       CLOUDY    64  59  83 W12       29.91R
$$

ILZ005-006-012>014-019>023-271200-
NORTHEAST ILLINOIS

CITY           SKY/WX    TMP DP  RH WIND       PRES   REMARKS
CHICAGO-OHARE  PTCLDY    64  60  87 W9        29.90R
CHICAGO-MIDWAY PTCLDY    67  62  84 SW12      29.91R
AURORA         CLEAR     63  58  83 SW10      29.92R
WAUKEGAN       CLOUDY    63  61  93 SW7       29.87R
DUPAGE AIRPORT CLEAR     63  59  87 SW13      29.90R
WHEELING       CLOUDY    65  60  84 SW7       29.91R
NORTHERLY ISL    N/A     66  60  81 SW8         N/A
$$

LMZ740>746-271200-
SOUTHERN LAKE MICHIGAN

STATION/POSITION SKY/WX   TEMP    WIND        PRES    VSBY  WAVE
                          AIR SEA DIR/SP/G                  HT/PER
                          (F)     (DEG/KT/KT) (MB)    (MI)  (FT/S)
SOUTHERN BUOY              45 38  200/ 12/ 12 1012.0R         1/ 4
HARRISON CRIB              66     210/ 19/ 22   N/A
BURNHAM HARBOR             66     200/  4/  9   N/A
CALUMET HARBOR             66     210/  8/ 11   N/A
BURNS HARBOR               67     220/ 16/ 21 1013.5R
MICHIGAN CITY              67     190/ 18/ 21   N/A
MICHIGAN CITY 6N           62 52  220/ 14/ 17   N/A           2/ 3
ST. JOSEPH                 60 55  230/ 12/ 12   N/A           2/ 4
$$

ILZ025>027-034>036-040-047-049-050-058-095>099-271200-
WEST-CENTRAL ILLINOIS

CITY           SKY/WX    TMP DP  RH WIND       PRES   REMARKS
QUINCY         PTCLDY    63  61  93 SW5       29.98R
$$

ILZ028>032-037-038-041>044-048-051>054-059>061-271200-
CENTRAL ILLINOIS

CITY           SKY/WX    TMP DP  RH WIND       PRES   REMARKS
DECATUR        PTCLDY    66  62  87 SW10      29.99R
PEORIA         PTCLDY    65  61  87 SW6       29.96R
SPRINGFIELD    PTCLDY    67  62  84 SW5       29.97S
TAYLORVILLE    NOT AVBL
$$

ILZ033-039-045-046-055>057-062-063-271200-
EAST-CENTRAL ILLINOIS

CITY           SKY/WX    TMP DP  RH WIND       PRES   REMARKS
CHAMPAIGN      MOCLDY    65  61  87 SW7       30.00R
MATTOON        PTCLDY    65  62  90 S8        30.01R
$$

ILZ079-100>102-271200-
SOUTHWEST ILLINOIS

CITY           SKY/WX    TMP DP  RH WIND       PRES   REMARKS
BELLEVILLE     LGT RAIN  66  66  99 S5        30.01R
CAHOKIA*       CLOUDY    68  63  84 S5        30.01R
$$

ILZ064>066-069>071-074>076-080>082-084>086-088>090-092>094-271200-
SOUTH-CENTRAL ILLINOIS

CITY           SKY/WX    TMP DP  RH WIND       PRES   REMARKS
CARBONDALE     MOCLDY    65  62  90 S5        30.05R
MT. VERNON     MOCLDY    64  57  77 S3        30.05S
$$

ILZ067-068-072-073-078-083-087-091-271200-
SOUTHEAST ILLINOIS

CITY           SKY/WX    TMP DP  RH WIND       PRES   REMARKS
LAWRENCEVILLE  CLEAR     63  61  93 S7        30.07R
$$

ABBREVIATIONS USED IN REMARKS
   TC - TEMPERATURE IN CELSIUS
  WCI - WIND CHILL INDEX
   HX - HEAT INDEX
  VSB - VISIBILITY
$$




USA.gov is the U.S. government's official web portal to all federal, state and local government web resources and services.